TimePDT,TemperatureF,Dew PointF,Humidity,Sea Level PressureIn,VisibilityMPH,Wind Direction,Wind SpeedMPH,Gust SpeedMPH,PrecipitationIn,Events,Conditions,WindDirDegrees,DateUTC
12:53 AM,42.1,24.1,49,30.26,10.0,Calm,Calm,-,N/A,,Clear,0,2012-10-04 07:53:00
1:53 AM,41.0,24.1,51,30.29,10.0,ESE,5.8,-,N/A,,Clear,110,2012-10-04 08:53:00
2:53 AM,39.9,25.0,55,30.27,10.0,SE,3.5,-,N/A,,Clear,130,2012-10-04 09:53:00
3:53 AM,37.0,25.0,62,30.27,10.0,Calm,Calm,-,N/A,,Clear,0,2012-10-04 10:53:00
4:53 AM,37.0,24.1,59,30.28,10.0,Calm,Calm,-,N/A,,Clear,0,2012-10-04 11:53:00
5:53 AM,37.0,25.0,62,30.28,10.0,ESE,4.6,-,N/A,,Clear,110,2012-10-04 12:53:00
6:53 AM,37.0,26.1,65,30.29,10.0,ESE,3.5,-,N/A,,Clear,110,2012-10-04 13:53:00
7:53 AM,39.0,27.0,62,30.31,10.0,Calm,Calm,-,N/A,,Clear,0,2012-10-04 14:53:00
8:53 AM,43.0,28.9,58,30.32,10.0,Calm,Calm,-,N/A,,Clear,0,2012-10-04 15:53:00
9:53 AM,45.0,28.0,52,30.33,10.0,SSW,4.6,-,N/A,,Clear,200,2012-10-04 16:53:00
10:53 AM,-9999,-9999,N/A,30.32,10.0,SSE,3.5,-,N/A,,Clear,160,2012-10-04 17:53:00
11:53 AM,52.0,27.0,38,30.33,-9999.0,SW,3.5,-,N/A,,Clear,220,2012-10-04 18:53:00
12:53 PM,55.9,27.0,33,30.32,10.0,Calm,Calm,-,N/A,,Clear,0,2012-10-04 19:53:00
1:53 PM,59.0,26.1,28,30.29,10.0,Variable,5.8,-,N/A,,Clear,0,2012-10-04 20:53:00
2:53 PM,61.0,25.0,25,30.27,10.0,Calm,Calm,-,N/A,,Clear,0,2012-10-04 21:53:00
3:53 PM,64.0,17.1,16,30.26,10.0,NNE,13.8,19.6,N/A,,Clear,20,2012-10-04 22:53:00
4:53 PM,63.0,17.1,17,30.26,10.0,NNE,13.8,-,N/A,,Clear,30,2012-10-04 23:53:00
5:53 PM,60.1,15.1,17,30.26,10.0,NNE,13.8,-,N/A,,Clear,20,2012-10-05 00:53:00
6:53 PM,50.0,15.1,25,30.27,10.0,NE,9.2,-,N/A,,Clear,50,2012-10-05 01:53:00
7:53 PM,48.9,15.1,26,30.28,10.0,East,10.4,-,N/A,,Clear,90,2012-10-05 02:53:00
8:53 PM,46.9,18.0,32,30.29,10.0,East,11.5,-,N/A,,Clear,90,2012-10-05 03:53:00
9:53 PM,43.0,19.9,40,30.29,10.0,East,8.1,-,N/A,,Clear,100,2012-10-05 04:53:00
10:53 PM,45.0,19.9,37,30.27,10.0,SE,3.5,-,N/A,,Clear,140,2012-10-05 05:53:00
11:53 PM,39.9,19.0,43,30.29,10.0,ESE,3.5,-,N/A,,Clear,120,2012-10-05 06:53:00